User: anonymous   Login
Location: Holmes Observatory
(37.1039°N, 122.0513°W)
Time: 19:49:43
(UTC-08:00)
Language:

Cosmos 921 Rocket - Orbit

View from above orbital plane
View from above orbital plane
View from above satellite
View from above satellite

Ground track
Ground track

The orbit data is extracted from the following two-line orbital elements,

1 10096U 77055B   14352.29361354  .00000515  00000-0  57326-4 0  6162
2 10096 075.8330 178.8623 0043108 008.4439 047.1096 14.88034414 26599
Epoch (UTC): 18 December 2014 07:02:48
Eccentricity: 0.0043108
inclination: 75.8330°
perigee height: 574 km
apogee height: 634 km
right ascension of ascending node: 178.8623°
argument of perigee: 8.4439°
revolutions per day: 14.88034414
mean anomaly at epoch: 47.1096°
orbit number at epoch: 2659

The dashed part of the orbit path shows where the satellite is in the earth's shadow,  

DLR